Dewpoint
31 22 22 21 17 18 20 19 17 18 19 23 22 21 20 16 16 31 29 27 22 19 20 20 23 21 20 19 20 19 18 19 25 25 24 23 22 23 23 25 26 28 28 34 37 41 42 43 42 43 42 40 39 40 40 38 38 37 38 39 40 42 41 41 40 41 42 43 44 47 48 48 50 49 49 48 47 46 46 46 48 49 50 51 51 51
30 21 19 22 21 15 16 18 18 20 20 20 20 18 16 21 16 26 30 24 26 23 16 17 17 17 18 18 19 19 18 17 18 20 21 22 23 23 22 21 22 24 31 35 37 42 45 44 44 44 42 40 37 38 39 38 37 37 37 38 39 42 41 40 40 40 42 43 44 46 48 48 49 49 47 47 47 46 47 48 49 50 50 51 51 50
25 22 20 22 21 16 13 14 19 18 18 19 17 14 13 14 18 29 29 27 31 24 19 13 11 16 15 15 17 18 18 16 17 17 16 16 18 20 22 22 22 22 24 26 29 34 39 45 44 42 40 39 36 36 38 37 37 37 37 37 39 41 40 40 41 42 43 45 46 47 47 47 47 49 47 47 47 47 46 47 50 51 51 52 51 52
22 22 22 23 18 16 14 15 19 21 20 17 16 13 9 13 10 10 23 28 29 21 19 22 17 15 15 17 18 18 16 17 23 24 22 19 15 15 16 17 20 20 20 20 19 22 27 33 43 41 38 38 37 36 37 38 36 37 37 36 38 40 40 40 42 43 44 46 46 45 45 46 44 45 47 46 46 47 47 47 50 52 53 53 52 52
22 23 23 21 17 14 13 15 16 18 17 19 18 14 12 14 16 10 18 26 25 25 23 14 14 9 13 16 18 17 16 20 20 21 21 20 21 17 19 19 18 17 18 19 19 19 20 28 34 39 38 36 37 37 36 37 37 38 36 36 37 39 40 40 42 43 45 45 45 45 45 45 44 48 45 46 47 48 48 50 51 53 53 53 52 52
22 24 26 21 16 13 16 14 17 19 14 16 19 17 17 17 14 20 22 23 18 15 22 20 3 0 9 16 19 21 21 16 15 16 16 17 18 19 17 16 17 23 21 17 17 19 21 28 34 36 37 36 36 36 36 37 37 36 36 36 37 39 40 40 41 43 45 44 44 43 43 44 44 46 47 47 48 49 50 51 51 52 53 52 52 52
23 24 23 19 17 17 15 13 18 18 14 12 12 17 20 20 18 20 20 12 9 6 17 21 5 -3 10 15 20 22 22 22 19 18 16 16 18 18 19 20 19 19 19 20 21 23 28 32 34 35 35 35 35 36 37 38 37 36 36 36 37 39 41 42 42 43 44 43 43 43 42 45 45 44 47 47 47 47 48 49 49 50 52 52 52 52
27 25 24 23 19 18 15 13 15 15 13 10 20 21 18 18 18 19 18 11 13 13 21 20 18 8 5 10 15 20 19 23 24 23 20 20 19 20 20 22 22 23 21 23 23 24 27 34 34 34 34 35 34 35 36 37 38 36 36 37 38 39 42 43 43 43 44 43 43 44 44 45 45 43 41 41 42 43 46 47 48 49 51 52 52 52
26 25 24 23 21 16 15 14 15 12 13 17 24 32 19 17 19 20 16 14 13 6 7 13 17 5 8 13 13 19 14 17 21 23 21 23 22 21 23 24 25 25 26 26 27 26 25 26 33 33 33 34 35 36 36 36 38 37 38 38 38 39 41 42 44 44 43 44 44 45 45 42 40 39 39 39 40 40 42 46 48 49 50 52 52 52
28 27 26 24 19 16 17 14 13 13 12 28 27 28 27 23 21 21 15 16 11 8 6 11 15 3 1 8 11 15 14 16 18 19 19 19 21 22 22 22 23 24 26 27 26 26 27 26 26 31 32 33 36 37 38 37 39 39 38 38 38 38 41 42 44 44 43 45 44 43 42 40 38 39 40 39 40 44 47 47 49 49 50 50 50 50
24 31 31 30 22 20 17 15 19 17 12 30 24 20 19 17 16 18 18 16 12 8 8 11 15 7 -1 4 14 10 11 9 9 11 16 17 16 17 20 19 21 21 25 29 29 29 30 29 29 32 32 33 35 37 37 38 39 39 38 37 38 38 40 42 44 44 43 44 43 41 41 40 39 39 40 40 42 45 47 49 48 48 48 48 48 48
26 29 27 28 31 24 23 25 30 31 28 22 19 21 19 18 15 15 13 16 9 5 10 15 14 11 1 -1 10 5 6 6 5 11 12 14 17 17 15 16 16 23 26 31 32 32 32 32 31 32 31 32 35 38 38 39 39 38 38 38 38 38 40 44 44 45 44 43 43 43 42 42 42 41 41 41 41 43 45 47 48 48 48 49 49 49
27 27 26 26 31 31 24 21 21 27 26 20 22 19 12 11 12 7 11 9 9 4 9 16 17 9 8 4 0 1 -1 -2 8 11 13 17 19 20 19 20 29 29 28 31 31 32 32 31 31 31 30 33 39 38 39 39 39 39 39 38 37 38 41 44 44 44 44 43 43 44 44 43 43 43 43 42 43 45 45 47 47 47 47 47 49 49
23 27 27 26 26 27 26 17 17 21 23 19 18 15 13 11 10 6 8 7 8 11 12 17 16 10 8 11 9 6 2 1 4 6 10 14 18 22 25 27 30 30 29 30 31 32 31 32 31 31 30 35 39 38 39 39 39 39 39 39 37 39 43 43 44 43 44 44 44 44 45 45 46 45 45 45 44 45 45 46 46 47 46 46 47 47
19 19 24 25 22 26 23 20 19 17 20 17 21 17 15 15 13 9 9 7 6 8 10 16 10 8 11 9 8 8 8 7 4 3 5 7 13 22 25 29 30 31 29 29 29 30 31 32 32 32 31 35 37 37 39 39 39 39 38 38 37 41 43 43 43 43 44 44 44 45 46 46 46 46 46 45 45 45 45 45 45 45 45 46 46 47
21 20 24 27 25 25 22 23 22 21 20 22 22 22 17 16 19 14 14 13 11 9 7 8 13 14 10 5 11 11 10 10 10 9 10 10 10 21 26 26 26 27 29 30 29 30 30 30 32 33 31 33 35 35 38 39 39 39 38 37 38 41 42 42 43 43 44 44 45 45 46 46 45 45 45 45 44 44 45 45 45 45 46 46 46 46
22 19 24 27 27 26 22 22 23 23 16 19 18 16 18 18 21 18 20 20 17 14 10 16 10 10 7 5 5 5 5 6 9 11 9 11 17 23 24 25 24 22 24 30 30 29 30 30 31 33 31 31 33 34 36 38 39 38 38 37 38 41 41 41 42 42 43 44 44 45 45 45 44 44 44 44 44 44 45 46 46 45 45 45 46 48
19 18 26 27 25 27 25 23 24 24 23 20 16 16 20 23 22 18 14 15 10 11 13 13 9 7 5 7 11 9 5 2 2 5 8 10 13 14 18 21 22 22 22 29 30 30 30 30 31 32 32 31 32 33 35 36 39 38 39 37 38 41 41 41 42 42 43 43 44 45 45 45 45 44 44 44 44 45 46 45 45 44 46 46 47 48
21 13 17 23 26 28 30 28 24 25 25 21 19 25 17 15 14 17 13 12 12 10 11 13 10 9 6 7 14 10 9 7 4 2 2 6 11 12 14 16 18 22 24 29 30 30 30 30 31 31 30 31 31 34 35 38 39 39 39 38 38 41 41 41 42 42 43 43 44 45 44 45 45 45 45 44 43 44 45 45 45 46 46 46 48 49
20 13 18 26 26 26 28 25 20 22 25 28 26 22 22 19 18 15 14 17 17 14 13 12 14 10 13 9 10 10 12 12 9 4 2 2 4 8 13 18 23 25 25 28 29 30 30 30 30 30 30 30 31 34 36 39 39 39 40 38 38 42 41 42 42 42 42 43 44 45 45 44 45 45 45 44 44 45 45 45 45 45 45 47 48 50
17 21 11 15 23 23 23 25 22 22 21 21 21 20 21 21 25 25 22 16 15 15 15 13 12 13 13 10 10 10 10 11 12 13 11 5 4 8 14 21 24 26 26 27 28 29 29 29 29 30 30 30 32 35 37 39 38 40 41 39 39 42 42 42 42 42 43 44 44 44 44 44 44 44 44 44 44 44 44 44 45 45 46 46 49 50
17 16 10 13 16 15 19 27 25 24 23 22 20 19 20 19 17 15 14 19 18 15 14 14 13 16 16 14 12 12 12 13 15 13 14 11 6 8 18 21 24 27 26 26 26 28 29 28 29 30 31 32 34 35 36 38 38 40 40 39 40 42 42 42 43 43 43 44 44 44 43 44 43 44 44 44 44 44 44 44 44 45 45 46 46 50
20 20 17 12 12 14 18 18 23 30 29 27 24 20 22 22 20 17 14 16 18 17 19 18 16 16 17 13 13 11 11 12 13 16 14 15 20 23 25 26 29 30 29 29 28 28 29 28 29 30 31 32 33 34 35 36 36 38 40 40 41 41 42 42 43 43 43 43 43 43 43 43 43 43 43 43 43 43 43 43 43 44 45 45 47 50
24 15 11 12 15 15 16 16 22 25 26 25 26 26 23 20 21 19 18 20 17 17 16 15 15 15 20 17 16 13 14 15 15 16 18 20 22 25 25 26 26 27 30 29 29 30 29 28 29 30 31 32 33 34 35 36 35 37 38 39 39 40 41 41 42 42 43 43 43 43 42 42 42 42 42 43 42 42 42 43 43 44 45 46 48 50
12 10 13 5 3 3 7 20 25 23 22 20 18 18 18 22 25 25 25 24 19 19 17 15 13 15 18 18 17 11 10 10 11 16 20 21 23 22 22 24 24 24 25 27 29 29 28 28 28 30 31 31 32 32 33 34 35 35 36 37 38 39 40 40 42 42 42 42 42 42 42 42 42 42 42 42 42 42 42 42 43 43 44 47 49 50
15 13 10 1 -2 -3 -3 6 12 14 13 14 16 13 16 18 16 16 20 21 18 19 21 19 18 18 17 17 15 9 10 10 13 16 17 22 21 26 29 25 24 25 25 26 28 29 28 28 29 30 30 30 31 31 32 33 33 34 35 36 37 37 38 38 41 41 41 42 41 41 41 42 41 41 41 42 42 42 42 42 42 43 43 46 49 50
13 14 11 8 3 3 5 8 13 14 11 10 11 13 15 16 15 18 16 15 17 19 19 19 21 24 22 20 12 11 14 12 14 16 18 21 23 25 27 29 28 27 26 24 28 29 28 29 29 28 29 30 30 31 31 32 32 32 34 35 36 36 37 38 40 40 41 41 40 41 41 41 41 41 41 42 42 42 42 42 42 42 43 46 47 48
12 10 11 11 11 10 11 11 10 9 9 11 10 8 8 8 13 14 13 10 16 15 17 20 22 21 21 21 20 17 12 14 15 14 17 22 27 29 28 27 29 25 25 26 26 26 26 27 29 29 29 29 30 31 31 32 31 31 32 33 35 35 36 38 38 39 39 40 40 41 40 41 41 41 42 42 42 42 42 41 41 41 41 44 48 48
12 9 11 10 8 9 10 10 10 11 9 8 8 9 9 11 12 11 11 14 16 13 11 18 22 22 21 21 21 20 19 15 9 10 13 15 20 22 25 24 24 25 26 26 26 27 25 25 26 28 29 31 30 30 31 31 31 31 31 32 34 34 35 38 37 37 38 38 39 40 40 40 40 41 41 41 41 41 41 41 40 40 40 40 43 47
12 10 10 9 7 9 10 10 9 9 9 9 10 9 9 9 8 8 9 14 14 13 14 15 16 16 23 21 21 21 22 21 21 21 17 17 20 21 23 25 26 27 26 26 26 26 26 26 26 26 28 29 30 30 30 31 31 31 30 31 32 33 34 36 36 36 36 37 37 38 39 39 40 40 40 41 41 41 40 39 39 40 39 39 40 44
10 7 10 10 8 8 9 7 5 3 2 3 4 5 7 7 5 7 10 12 14 13 13 14 16 20 23 24 22 21 21 21 21 20 20 22 22 23 23 23 24 25 27 28 28 27 27 27 27 28 28 29 29 29 30 30 30 31 30 31 32 32 33 35 34 35 35 36 36 37 38 38 39 39 39 40 40 38 38 39 38 37 38 37 38 39
11 7 7 5 1 0 2 2 2 3 4 5 6 7 8 9 10 10 10 12 9 7 8 8 8 10 20 28 25 23 22 22 21 21 21 22 22 22 21 21 22 23 25 25 28 30 28 28 27 27 27 28 29 29 29 29 30 30 30 31 32 32 33 33 33 33 33 34 35 36 37 37 38 38 38 38 38 38 37 36 36 36 37 36 36 35
3 3 3 2 0 -1 1 2 4 4 3 1 4 7 6 6 6 7 8 9 8 9 7 8 9 15 22 18 17 20 22 21 21 21 22 22 23 22 21 20 20 21 21 22 24 25 31 29 28 27 27 27 28 29 29 29 29 29 30 30 31 32 33 32 32 32 32 32 33 35 36 36 37 37 37 38 37 37 36 37 37 37 38 37 36 35
7 6 6 4 1 0 1 1 2 0 -5 -5 4 8 7 2 1 0 1 2 9 15 14 17 17 16 15 16 17 18 24 25 22 22 23 22 22 22 22 21 21 21 22 24 25 25 25 27 31 28 28 28 28 29 29 29 28 29 29 30 31 31 32 32 31 31 31 32 33 34 35 35 36 36 36 36 37 36 36 36 37 37 38 38 37 38
7 8 7 6 3 0 0 -0 -2 -7 -6 3 5 3 0 -1 -1 -0 1 4 6 8 8 9 14 17 17 19 25 24 23 26 26 24 22 22 24 23 23 22 22 23 24 25 26 26 26 25 26 30 29 28 28 28 28 28 29 29 29 29 30 31 32 31 31 31 31 32 33 33 34 35 35 35 35 36 36 36 36 36 35 36 38 38 38 38
7 7 6 6 5 3 1 -1 -8 -8 1 5 2 1 6 3 0 0 0 5 9 11 14 14 15 18 17 14 14 16 18 25 25 25 25 24 23 23 23 23 23 24 24 24 23 25 25 25 24 26 30 30 29 28 29 28 29 28 28 29 29 30 31 31 31 31 31 32 33 33 34 34 34 34 35 35 36 36 36 35 35 35 36 37 37 37
9 8 6 3 2 -4 -3 -4 -4 -0 -0 -0 -0 -4 -5 -5 -4 -4 -1 -2 1 4 9 9 6 3 6 12 17 18 24 26 23 23 25 26 27 27 26 25 26 26 26 26 25 24 25 26 26 26 28 31 30 29 29 29 29 28 28 29 29 30 30 30 30 30 30 31 32 33 33 34 34 34 34 35 36 36 36 35 35 34 35 36 37 37
9 7 7 3 1 1 -3 -6 -6 -7 -10 -8 -7 -5 -3 -4 -5 -2 -3 -7 -2 -3 -2 -0 1 1 8 13 21 25 27 22 18 20 26 27 27 28 27 27 25 25 26 27 26 26 26 26 26 27 28 28 30 30 29 28 28 28 28 28 29 29 29 29 29 29 30 30 31 32 32 33 33 33 34 34 35 35 36 35 35 35 35 36 36 36
10 9 9 5 1 -2 -3 -5 -6 -9 -9 -7 -5 -3 3 1 7 3 2 -1 0 19 22 22 21 22 23 23 23 25 23 19 16 20 26 27 27 28 27 26 25 24 24 25 27 26 26 26 27 28 28 27 27 27 30 28 27 27 27 27 27 28 27 28 28 29 29 29 29 30 31 32 33 33 33 34 34 34 35 35 36 35 35 34 35 36
8 7 7 4 2 1 -1 -4 -6 -6 -6 -5 -6 -6 -8 -9 -6 -6 -9 -7 3 20 22 22 21 22 22 23 24 25 24 21 23 25 26 27 28 29 28 27 26 25 24 24 24 25 26 27 27 26 26 26 26 26 29 28 27 27 26 26 26 26 26 27 27 28 28 29 29 29 30 31 32 32 33 33 33 33 34 34 34 35 35 34 35 36
5 5 6 2 1 2 3 -2 -3 -3 -1 -2 -2 -3 -3 6 4 -3 -6 0 20 20 21 21 21 22 23 22 24 22 25 27 26 26 26 27 28 28 29 28 27 26 25 24 24 26 25 26 27 27 26 27 27 26 26 27 27 26 26 26 25 25 25 26 26 27 27 28 28 28 29 31 31 31 32 32 32 33 33 34 34 34 34 34 34 35
-0 1 3 3 0 -2 -2 -4 -5 -3 1 1 -1 -1 -1 -1 -8 -12 8 17 19 22 21 20 20 21 20 22 23 24 25 26 26 26 25 27 28 28 29 29 28 28 27 26 26 25 23 24 24 25 26 26 27 27 27 26 26 26 25 25 24 24 25 25 25 26 26 27 27 28 29 30 30 31 32 32 32 33 33 33 34 34 34 34 34 34
-2 -4 -5 -3 -2 -1 -3 -6 -7 -10 -4 2 -1 -2 3 -3 -3 13 9 17 21 22 22 20 20 20 21 22 24 26 26 26 25 25 26 27 28 29 29 29 29 28 27 25 23 23 24 23 23 24 24 26 27 27 27 26 25 24 25 24 24 24 24 24 26 26 26 26 26 27 29 30 30 30 31 31 32 33 33 33 33 33 33 33 33 33
0 -5 -5 -5 -3 -8 -7 -8 -8 -6 3 8 2 -0 11 11 18 15 19 17 19 21 22 23 23 23 24 25 26 26 27 26 25 26 27 27 28 28 28 28 29 28 27 26 25 23 24 23 22 23 23 24 25 26 27 26 25 25 25 24 25 24 24 24 25 25 25 26 26 27 29 30 31 30 31 31 32 32 33 33 33 33 33 33 33 34
3 -1 -1 -7 -1 -5 -9 -5 -2 8 9 14 12 13 13 16 21 21 23 22 21 23 24 25 24 25 26 27 27 27 26 26 27 27 27 27 26 26 26 27 28 28 28 27 27 26 25 24 22 21 22 23 24 24 25 26 26 26 26 25 24 25 24 25 26 25 25 25 26 27 28 30 30 31 31 32 32 32 33 32 33 33 32 33 33 33
5 5 7 1 -1 3 5 4 4 6 9 10 14 15 13 20 21 23 23 23 25 24 25 25 25 26 26 27 26 26 25 26 27 26 26 25 24 25 26 27 27 27 27 27 27 28 27 25 23 22 21 22 24 24 25 25 25 26 26 25 25 24 24 25 27 27 27 27 27 27 29 30 30 30 31 32 32 32 33 33 33 33 33 33 33 33
4 6 3 0 1 -0 -4 3 3 4 5 5 5 6 12 20 19 20 21 24 24 25 25 25 25 26 27 28 27 26 26 27 26 25 23 22 23 24 25 25 25 25 25 26 26 28 27 25 23 23 23 23 24 24 25 26 26 26 26 25 25 24 24 26 27 28 28 28 27 27 30 30 30 30 31 31 31 32 32 32 32 32 32 32 32 33
3 8 5 4 3 1 -1 3 4 7 6 7 9 9 17 19 18 20 21 21 22 24 24 25 25 25 26 26 26 26 25 25 24 22 21 21 21 22 23 23 22 23 23 24 25 27 28 26 26 26 25 25 24 25 25 26 26 26 27 27 27 26 26 27 27 27 27 27 28 29 30 30 30 31 31 31 31 31 31 32 32 32 32 32 32 32
6 10 2 3 3 5 6 7 6 5 7 9 10 10 12 16 20 20 21 22 22 24 24 24 24 25 24 25 26 26 25 24 21 20 19 19 20 21 21 20 20 21 22 22 24 27 28 28 28 28 27 26 25 25 26 26 25 26 27 27 28 27 27 27 27 28 27 27 28 29 30 30 31 31 31 31 31 31 32 32 32 32 32 32 33 32
5 6 7 5 4 4 4 5 6 3 3 5 8 9 10 13 14 17 17 21 20 17 19 20 22 23 22 22 24 23 22 21 18 17 17 18 19 19 19 18 18 19 20 22 24 26 27 27 29 29 28 27 26 26 26 26 26 26 27 28 28 28 28 28 28 28 28 28 29 29 30 30 30 30 31 31 31 31 29 31 31 32 32 32 31 31
4 3 5 5 4 3 5 6 7 8 8 8 8 8 9 15 15 18 21 20 20 20 21 22 23 23 21 23 22 20 17 16 15 15 15 16 17 17 16 17 17 18 19 21 23 24 24 26 28 29 29 29 27 26 26 26 27 27 27 27 27 28 29 28 28 28 29 29 29 30 30 30 30 30 31 31 31 31 31 30 29 33 33 32 31 31